"read_dt","SO2 (ppb)","flags","PMT voltage (V)","lamp voltage (V)","lamp intensity (Hz)","internal temp (C)","react chamber temp (C)","sample flow (l/min)","pres (mmHg)","SO2 bkg (ppb)","SO2 coefficient"
2014-11-13 00:00:00,2427E-3,5C000000,-0724,0833,12244,024.9,045.4,0.483,741.6,01.18,0.508
2014-11-13 00:01:00,2442E-3,5C000000,-0724,0833,12152,024.8,045.4,0.483,741.7,01.18,0.508
2014-11-13 00:02:00,2348E-3,5C000000,-0724,0833,12324,024.8,045.4,0.483,741.7,01.18,0.508
2014-11-13 00:03:00,2327E-3,5C000000,-0724,0833,12201,024.9,045.4,0.483,741.6,01.18,0.508
2014-11-13 00:04:00,2470E-3,5C000000,-0724,0833,11986,024.8,045.4,0.483,741.6,01.18,0.508
2014-11-13 00:05:00,2239E-3,5C000000,-0724,0833,12065,024.8,045.4,0.483,741.7,01.18,0.508
2014-11-13 00:06:00,2427E-3,5C000000,-0724,0832,12207,024.8,045.3,0.483,741.6,01.18,0.508
2014-11-13 00:07:00,2457E-3,5C000000,-0724,0833,12091,024.8,045.4,0.483,741.6,01.18,0.508
2014-11-13 00:08:00,2352E-3,5C000000,-0724,0833,12206,024.8,045.4,0.483,741.6,01.18,0.508
2014-11-13 00:09:00,2413E-3,5C000000,-0724,0832,12133,024.8,045.4,0.483,741.6,01.18,0.508
2014-11-13 00:10:00,2276E-3,5C000000,-0724,0833,12135,024.8,045.4,0.483,741.5,01.18,0.508
2014-11-13 00:11:00,2357E-3,5C000000,-0724,0834,12414,024.8,045.4,0.483,741.5,01.18,0.508
2014-11-13 00:12:00,2472E-3,5C000000,-0724,0833,12233,024.8,045.3,0.483,741.5,01.18,0.508
2014-11-13 00:13:00,2412E-3,5C000000,-0724,0833,12181,024.8,045.4,0.483,741.5,01.18,0.508
2014-11-13 00:14:00,2500E-3,5C000000,-0724,0833,12191,024.8,045.3,0.483,741.5,01.18,0.508
2014-11-13 00:15:00,2459E-3,5C000000,-0724,0832,12069,024.8,045.3,0.483,741.5,01.18,0.508
2014-11-13 00:16:00,2409E-3,5C000000,-0724,0833,12350,024.9,045.4,0.483,741.5,01.18,0.508
2014-11-13 00:17:00,2512E-3,5C000000,-0724,0832,12266,024.8,045.4,0.483,741.5,01.18,0.508
2014-11-13 00:18:00,2364E-3,5C000000,-0724,0833,12059,024.8,045.4,0.483,741.5,01.18,0.508
2014-11-13 00:19:00,2522E-3,5C000000,-0724,0833,12205,024.8,045.3,0.483,741.5,01.18,0.508
2014-11-13 00:20:00,2431E-3,5C000000,-0724,0832,12226,024.8,045.4,0.483,741.5,01.18,0.508
2014-11-13 00:21:00,2272E-3,5C000000,-0724,0833,12263,024.8,045.4,0.483,741.5,01.18,0.508
2014-11-13 00:22:00,2432E-3,5C000000,-0724,0832,12204,024.8,045.4,0.483,741.5,01.18,0.508
2014-11-13 00:23:00,2461E-3,5C000000,-0724,0833,12335,024.8,045.4,0.483,741.4,01.18,0.508
2014-11-13 00:24:00,2538E-3,5C000000,-0724,0833,12025,024.8,045.4,0.483,741.4,01.18,0.508
2014-11-13 00:25:00,2419E-3,5C000000,-0724,0833,12027,024.8,045.3,0.483,741.5,01.18,0.508
2014-11-13 00:26:00,2371E-3,5C000000,-0724,0833,12283,024.8,045.4,0.483,741.4,01.18,0.508
2014-11-13 00:27:00,2398E-3,5C000000,-0724,0833,12206,024.8,045.4,0.483,741.4,01.18,0.508
2014-11-13 00:28:00,2338E-3,5C000000,-0724,0833,12397,024.8,045.4,0.483,741.4,01.18,0.508
2014-11-13 00:29:00,2318E-3,5C000000,-0724,0832,12109,024.8,045.4,0.483,741.4,01.18,0.508
2014-11-13 00:30:00,2278E-3,5C000000,-0724,0833,12000,024.8,045.4,0.483,741.4,01.18,0.508
2014-11-13 00:31:00,2336E-3,5C000000,-0724,0833,12224,024.8,045.4,0.483,741.4,01.18,0.508
2014-11-13 00:32:00,2327E-3,5C000000,-0724,0833,12081,024.8,045.4,0.483,741.3,01.18,0.508
2014-11-13 00:33:00,2507E-3,5C000000,-0724,0832,12266,024.8,045.3,0.483,741.3,01.18,0.508
2014-11-13 00:34:00,2499E-3,5C000000,-0724,0832,12142,024.8,045.3,0.483,741.3,01.18,0.508
2014-11-13 00:35:00,2347E-3,5C000000,-0724,0833,12186,024.8,045.3,0.482,741.4,01.18,0.508
2014-11-13 00:36:00,2377E-3,5C000000,-0724,0833,12256,024.8,045.3,0.483,741.3,01.18,0.508
2014-11-13 00:37:00,2414E-3,5C000000,-0724,0833,12114,024.8,045.4,0.483,741.3,01.18,0.508
2014-11-13 00:38:00,2329E-3,5C000000,-0724,0832,12183,024.8,045.4,0.483,741.4,01.18,0.508
2014-11-13 00:39:00,2422E-3,5C000000,-0724,0833,12051,024.8,045.3,0.483,741.3,01.18,0.508
2014-11-13 00:40:00,2422E-3,5C000000,-0724,0833,12280,024.8,045.4,0.483,741.3,01.18,0.508
2014-11-13 00:41:00,2337E-3,5C000000,-0724,0833,12216,024.8,045.4,0.483,741.3,01.18,0.508
2014-11-13 00:42:00,2315E-3,5C000000,-0724,0833,12270,024.8,045.4,0.483,741.3,01.18,0.508
2014-11-13 00:43:00,2503E-3,5C000000,-0724,0833,12135,024.8,045.4,0.483,741.3,01.18,0.508
2014-11-13 00:44:00,2382E-3,5C000000,-0724,0833,12275,024.8,045.3,0.483,741.3,01.18,0.508
2014-11-13 00:45:00,2351E-3,5C000000,-0724,0833,12220,024.8,045.4,0.483,741.3,01.18,0.508
2014-11-13 00:46:00,2361E-3,5C000000,-0724,0832,12149,024.8,045.4,0.482,741.3,01.18,0.508
2014-11-13 00:47:00,2372E-3,5C000000,-0724,0832,12123,024.8,045.4,0.483,741.4,01.18,0.508
2014-11-13 00:48:00,2425E-3,5C000000,-0724,0832,12337,024.8,045.4,0.483,741.3,01.18,0.508
2014-11-13 00:49:00,2424E-3,5C000000,-0724,0833,12195,024.8,045.4,0.483,741.4,01.18,0.508
2014-11-13 00:50:00,2420E-3,5C000000,-0724,0833,12197,024.8,045.4,0.483,741.4,01.18,0.508
2014-11-13 00:51:00,2496E-3,5C000000,-0724,0833,12223,024.8,045.4,0.483,741.3,01.18,0.508
2014-11-13 00:52:00,2580E-3,5C000000,-0724,0834,12233,024.8,045.4,0.483,741.3,01.18,0.508
2014-11-13 00:53:00,2449E-3,5C000000,-0724,0833,12203,024.8,045.3,0.483,741.3,01.18,0.508
2014-11-13 00:54:00,2450E-3,5C000000,-0724,0834,12332,024.8,045.3,0.483,741.2,01.18,0.508
2014-11-13 00:55:00,2514E-3,5C000000,-0724,0834,12244,024.8,045.3,0.483,741.3,01.18,0.508
2014-11-13 00:56:00,2426E-3,5C000000,-0724,0833,12265,024.8,045.4,0.483,741.3,01.18,0.508
2014-11-13 00:57:00,2341E-3,5C000000,-0724,0833,12193,024.8,045.3,0.483,741.3,01.18,0.508
2014-11-13 00:58:00,2384E-3,5C000000,-0724,0834,12305,024.8,045.4,0.483,741.3,01.18,0.508
2014-11-13 00:59:00,2443E-3,5C000000,-0724,0833,12243,024.8,045.4,0.483,741.2,01.18,0.508
2014-11-13 01:00:00,2311E-3,5C000000,-0724,0833,12139,024.8,045.4,0.482,741.2,01.18,0.508
2014-11-13 01:01:00,2485E-3,5C000000,-0724,0833,12248,024.8,045.3,0.483,741.2,01.18,0.508
2014-11-13 01:02:00,2366E-3,5C000000,-0724,0833,12175,024.8,045.4,0.483,741.2,01.18,0.508
2014-11-13 01:03:00,2375E-3,5C000000,-0724,0833,12100,024.8,045.3,0.483,741.2,01.18,0.508
2014-11-13 01:04:00,2351E-3,5C000000,-0724,0833,12104,024.8,045.3,0.483,741.2,01.18,0.508
2014-11-13 01:05:00,2412E-3,5C000000,-0724,0832,11998,024.8,045.4,0.483,741.2,01.18,0.508
2014-11-13 01:06:00,2351E-3,5C000000,-0724,0833,12200,024.8,045.4,0.483,741.2,01.18,0.508
2014-11-13 01:07:00,2455E-3,5C000000,-0724,0832,12204,024.8,045.4,0.483,741.1,01.18,0.508
2014-11-13 01:08:00,2471E-3,5C000000,-0724,0832,12227,024.7,045.3,0.483,741.1,01.18,0.508
2014-11-13 01:09:00,2296E-3,5C000000,-0724,0833,12238,024.7,045.4,0.483,741.1,01.18,0.508
2014-11-13 01:10:00,2516E-3,5C000000,-0724,0833,12242,024.8,045.4,0.483,741.1,01.18,0.508
2014-11-13 01:11:00,2418E-3,5C000000,-0724,0833,12129,024.7,045.4,0.482,741.1,01.18,0.508
2014-11-13 01:12:00,2385E-3,5C000000,-0724,0833,12243,024.8,045.4,0.483,741.1,01.18,0.508
2014-11-13 01:13:00,2386E-3,5C000000,-0724,0833,12263,024.7,045.3,0.483,740.9,01.18,0.508
2014-11-13 01:14:00,2488E-3,5C000000,-0724,0832,12013,024.7,045.3,0.483,741.0,01.18,0.508
2014-11-13 01:15:00,2414E-3,5C000000,-0724,0834,12165,024.7,045.3,0.483,741.0,01.18,0.508
2014-11-13 01:16:00,2443E-3,5C000000,-0724,0833,12032,024.8,045.3,0.483,741.0,01.18,0.508
2014-11-13 01:17:00,2406E-3,5C000000,-0724,0833,12213,024.7,045.4,0.483,741.0,01.18,0.508
2014-11-13 01:18:00,2412E-3,5C000000,-0724,0834,12193,024.7,045.4,0.482,741.1,01.18,0.508
2014-11-13 01:19:00,2261E-3,5C000000,-0724,0834,12130,024.7,045.4,0.483,741.0,01.18,0.508
2014-11-13 01:20:00,2355E-3,5C000000,-0724,0832,12016,024.7,045.4,0.483,741.0,01.18,0.508
2014-11-13 01:21:00,2497E-3,5C000000,-0724,0833,12255,024.7,045.3,0.483,741.1,01.18,0.508
2014-11-13 01:22:00,2567E-3,5C000000,-0724,0834,12303,024.7,045.4,0.483,741.0,01.18,0.508
2014-11-13 01:23:00,2526E-3,5C000000,-0724,0833,12225,024.7,045.4,0.482,741.1,01.18,0.508
2014-11-13 01:24:00,2374E-3,5C000000,-0724,0833,12104,024.7,045.4,0.483,741.0,01.18,0.508
2014-11-13 01:25:00,2368E-3,5C000000,-0724,0834,12131,024.7,045.3,0.483,741.0,01.18,0.508
2014-11-13 01:26:00,2497E-3,5C000000,-0724,0833,12037,024.7,045.4,0.483,741.0,01.18,0.508
2014-11-13 01:27:00,2376E-3,5C000000,-0724,0832,12239,024.7,045.4,0.483,741.0,01.18,0.508
2014-11-13 01:28:00,2444E-3,5C000000,-0724,0833,12265,024.7,045.4,0.483,741.0,01.18,0.508
2014-11-13 01:29:00,2477E-3,5C000000,-0724,0833,12325,024.7,045.3,0.483,741.0,01.18,0.508
2014-11-13 01:30:00,2505E-3,5C000000,-0724,0833,12221,024.7,045.4,0.483,741.0,01.18,0.508
2014-11-13 01:31:00,2334E-3,5C000000,-0724,0833,12195,024.7,045.3,0.483,741.1,01.18,0.508
2014-11-13 01:32:00,2440E-3,5C000000,-0724,0833,12141,024.7,045.4,0.483,741.1,01.18,0.508
2014-11-13 01:33:00,2198E-3,5C000000,-0724,0832,12236,024.7,045.4,0.483,741.1,01.18,0.508
2014-11-13 01:34:00,2382E-3,5C000000,-0724,0833,12133,024.7,045.4,0.483,741.1,01.18,0.508
2014-11-13 01:35:00,2562E-3,5C000000,-0724,0833,12137,024.7,045.4,0.483,741.1,01.18,0.508
2014-11-13 01:36:00,2479E-3,5C000000,-0724,0833,12147,024.7,045.4,0.483,741.1,01.18,0.508
2014-11-13 01:37:00,2423E-3,5C000000,-0724,0833,12271,024.7,045.3,0.483,741.1,01.18,0.508
2014-11-13 01:38:00,2411E-3,5C000000,-0724,0833,12229,024.7,045.3,0.483,741.1,01.18,0.508
2014-11-13 01:39:00,2378E-3,5C000000,-0724,0833,12281,024.7,045.4,0.483,741.1,01.18,0.508
2014-11-13 01:40:00,2436E-3,5C000000,-0724,0833,12207,024.7,045.4,0.483,741.1,01.18,0.508
2014-11-13 01:41:00,2393E-3,5C000000,-0724,0833,12175,024.7,045.4,0.483,741.1,01.18,0.508
2014-11-13 01:42:00,2444E-3,5C000000,-0724,0834,12169,024.7,045.4,0.483,741.1,01.18,0.508
2014-11-13 01:43:00,2435E-3,5C000000,-0724,0833,12113,024.7,045.4,0.483,741.1,01.18,0.508
2014-11-13 01:44:00,2476E-3,5C000000,-0724,0833,12071,024.7,045.4,0.483,741.0,01.18,0.508
2014-11-13 01:45:00,2391E-3,5C000000,-0724,0833,12207,024.7,045.4,0.483,741.1,01.18,0.508
2014-11-13 01:46:00,2466E-3,5C000000,-0724,0834,12268,024.7,045.4,0.483,741.1,01.18,0.508
2014-11-13 01:47:00,2480E-3,5C000000,-0724,0833,12218,024.7,045.4,0.483,741.1,01.18,0.508
2014-11-13 01:48:00,2468E-3,5C000000,-0724,0833,12190,024.7,045.4,0.483,741.0,01.18,0.508
2014-11-13 01:49:00,2507E-3,5C000000,-0724,0833,12273,024.7,045.4,0.483,741.0,01.18,0.508
2014-11-13 01:50:00,2415E-3,5C000000,-0724,0833,12349,024.7,045.3,0.483,741.0,01.18,0.508
2014-11-13 01:51:00,2554E-3,5C000000,-0724,0833,12112,024.7,045.3,0.483,741.1,01.18,0.508
2014-11-13 01:52:00,2400E-3,5C000000,-0724,0833,12211,024.7,045.3,0.483,741.1,01.18,0.508
2014-11-13 01:53:00,2462E-3,5C000000,-0724,0833,12198,024.7,045.4,0.483,741.1,01.18,0.508
2014-11-13 01:54:00,2428E-3,5C000000,-0724,0833,12236,024.7,045.4,0.483,741.1,01.18,0.508
2014-11-13 01:55:00,2443E-3,5C000000,-0724,0833,12281,024.7,045.3,0.483,741.1,01.18,0.508
2014-11-13 01:56:00,2472E-3,5C000000,-0724,0833,12202,024.7,045.4,0.483,741.0,01.18,0.508
2014-11-13 01:57:00,2478E-3,5C000000,-0724,0833,12189,024.7,045.4,0.483,741.0,01.18,0.508
2014-11-13 01:58:00,2538E-3,5C000000,-0724,0833,12203,024.7,045.4,0.483,740.9,01.18,0.508
2014-11-13 01:59:00,2409E-3,5C000000,-0724,0833,12235,024.7,045.4,0.483,741.0,01.18,0.508
2014-11-13 02:00:00,2403E-3,5C000000,-0724,0833,12200,024.7,045.3,0.482,740.9,01.18,0.508
2014-11-13 02:01:00,2384E-3,5C000000,-0724,0833,12235,024.7,045.4,0.483,740.9,01.18,0.508
2014-11-13 02:02:00,2579E-3,5C000000,-0724,0833,12168,024.7,045.3,0.483,740.9,01.18,0.508
2014-11-13 02:03:00,2342E-3,5C000000,-0724,0833,12268,024.7,045.4,0.483,740.9,01.18,0.508
2014-11-13 02:04:00,2450E-3,5C000000,-0724,0833,12204,024.7,045.3,0.483,741.0,01.18,0.508
2014-11-13 02:05:00,2308E-3,5C000000,-0724,0833,12132,024.7,045.4,0.483,741.0,01.18,0.508
2014-11-13 02:06:00,2394E-3,5C000000,-0724,0833,12078,024.7,045.4,0.483,741.0,01.18,0.508
2014-11-13 02:07:00,2488E-3,5C000000,-0724,0832,12180,024.7,045.4,0.483,741.0,01.18,0.508
2014-11-13 02:08:00,2507E-3,5C000000,-0724,0833,12270,024.7,045.4,0.483,741.0,01.18,0.508
2014-11-13 02:09:00,2537E-3,5C000000,-0724,0833,12125,024.7,045.4,0.483,741.0,01.18,0.508
2014-11-13 02:10:00,2401E-3,5C000000,-0724,0833,12135,024.7,045.4,0.483,741.0,01.18,0.508
2014-11-13 02:11:00,2377E-3,5C000000,-0724,0833,12147,024.7,045.3,0.483,741.0,01.18,0.508
2014-11-13 02:12:00,2441E-3,5C000000,-0724,0833,12136,024.7,045.3,0.483,741.0,01.18,0.508
2014-11-13 02:13:00,2465E-3,5C000000,-0724,0832,12235,024.7,045.4,0.483,741.0,01.18,0.508
2014-11-13 02:14:00,2636E-3,5C000000,-0724,0833,12267,024.7,045.4,0.483,741.0,01.18,0.508
2014-11-13 02:15:00,2433E-3,5C000000,-0724,0833,12101,024.7,045.3,0.483,741.0,01.18,0.508
2014-11-13 02:16:00,2452E-3,5C000000,-0724,0833,12163,024.7,045.3,0.483,741.0,01.18,0.508
2014-11-13 02:17:00,2394E-3,5C000000,-0724,0834,12111,024.7,045.3,0.483,740.9,01.18,0.508
2014-11-13 02:18:00,2557E-3,5C000000,-0724,0833,12075,024.7,045.4,0.483,741.0,01.18,0.508
2014-11-13 02:19:00,2439E-3,5C000000,-0724,0833,12177,024.7,045.3,0.483,741.0,01.18,0.508
2014-11-13 02:20:00,2394E-3,5C000000,-0724,0833,12131,024.7,045.4,0.483,741.0,01.18,0.508
2014-11-13 02:21:00,2589E-3,5C000000,-0724,0833,12039,024.7,045.3,0.483,741.0,01.18,0.508
2014-11-13 02:22:00,2434E-3,5C000000,-0724,0833,12205,024.7,045.4,0.483,741.0,01.18,0.508
2014-11-13 02:23:00,2461E-3,5C000000,-0724,0833,12176,024.7,045.3,0.483,740.9,01.18,0.508
2014-11-13 02:24:00,2407E-3,5C000000,-0724,0832,12083,024.7,045.3,0.483,740.9,01.18,0.508
2014-11-13 02:25:00,2357E-3,5C000000,-0724,0833,12152,024.7,045.4,0.483,740.9,01.18,0.508
2014-11-13 02:26:00,2353E-3,5C000000,-0724,0833,12339,024.7,045.4,0.483,740.9,01.18,0.508
2014-11-13 02:27:00,2450E-3,5C000000,-0724,0833,12120,024.7,045.4,0.483,740.9,01.18,0.508
2014-11-13 02:28:00,2495E-3,5C000000,-0724,0833,12198,024.7,045.4,0.483,740.9,01.18,0.508
2014-11-13 02:29:00,2389E-3,5C000000,-0724,0833,12058,024.7,045.4,0.483,741.0,01.18,0.508
2014-11-13 02:30:00,2377E-3,5C000000,-0724,0832,12320,024.7,045.4,0.483,741.0,01.18,0.508
2014-11-13 02:31:00,2426E-3,5C000000,-0724,0833,12227,024.7,045.4,0.483,741.0,01.18,0.508
2014-11-13 02:32:00,2427E-3,5C000000,-0724,0832,12101,024.7,045.3,0.483,741.0,01.18,0.508
2014-11-13 02:33:00,2330E-3,5C000000,-0724,0832,12053,024.7,045.3,0.483,741.0,01.18,0.508
2014-11-13 02:34:00,2370E-3,5C000000,-0724,0833,12157,024.7,045.3,0.483,741.0,01.18,0.508
2014-11-13 02:35:00,2481E-3,5C000000,-0724,0832,12158,024.7,045.3,0.483,741.0,01.18,0.508
2014-11-13 02:36:00,2509E-3,5C000000,-0724,0832,12140,024.7,045.3,0.483,741.0,01.18,0.508
2014-11-13 02:37:00,2372E-3,5C000000,-0724,0833,12025,024.7,045.3,0.483,741.0,01.18,0.508
2014-11-13 02:38:00,2447E-3,5C000000,-0724,0833,12237,024.7,045.3,0.483,740.9,01.18,0.508
2014-11-13 02:39:00,2382E-3,5C000000,-0724,0833,12116,024.7,045.3,0.482,740.9,01.18,0.508
2014-11-13 02:40:00,2555E-3,5C000000,-0724,0832,12203,024.7,045.3,0.483,740.9,01.18,0.508
2014-11-13 02:41:00,2413E-3,5C000000,-0724,0833,12178,024.7,045.3,0.483,740.9,01.18,0.508
2014-11-13 02:42:00,2377E-3,5C000000,-0724,0833,12290,024.7,045.4,0.483,740.9,01.18,0.508
2014-11-13 02:43:00,2436E-3,5C000000,-0724,0832,12150,024.7,045.4,0.483,740.9,01.18,0.508
2014-11-13 02:44:00,2476E-3,5C000000,-0724,0833,12057,024.7,045.3,0.483,740.9,01.18,0.508
2014-11-13 02:45:00,2419E-3,5C000000,-0724,0833,12258,024.7,045.3,0.483,740.9,01.18,0.508
2014-11-13 02:46:00,2627E-3,5C000000,-0724,0833,12188,024.7,045.4,0.483,740.9,01.18,0.508
2014-11-13 02:47:00,2548E-3,5C000000,-0724,0832,12069,024.7,045.4,0.483,740.9,01.18,0.508
2014-11-13 02:48:00,2490E-3,5C000000,-0724,0833,12234,024.7,045.4,0.483,740.9,01.18,0.508
2014-11-13 02:49:00,2440E-3,5C000000,-0724,0832,12180,024.7,045.4,0.483,740.9,01.18,0.508
2014-11-13 02:50:00,2308E-3,5C000000,-0724,0833,12249,024.7,045.3,0.483,740.9,01.18,0.508
2014-11-13 02:51:00,2375E-3,5C000000,-0724,0833,12179,024.7,045.3,0.483,740.9,01.18,0.508
2014-11-13 02:52:00,2427E-3,5C000000,-0724,0833,12257,024.7,045.4,0.483,740.9,01.18,0.508
2014-11-13 02:53:00,2484E-3,5C000000,-0724,0832,12112,024.7,045.4,0.483,740.9,01.18,0.508
2014-11-13 02:54:00,2487E-3,5C000000,-0724,0833,12281,024.7,045.3,0.483,740.9,01.18,0.508
2014-11-13 02:55:00,2493E-3,5C000000,-0724,0833,12134,024.7,045.3,0.482,740.9,01.18,0.508
2014-11-13 02:56:00,2404E-3,5C000000,-0724,0833,12138,024.8,045.3,0.483,740.9,01.18,0.508
2014-11-13 02:57:00,2571E-3,5C000000,-0724,0832,12034,024.7,045.4,0.483,740.9,01.18,0.508
2014-11-13 02:58:00,2495E-3,5C000000,-0724,0833,12309,024.7,045.4,0.483,740.9,01.18,0.508
2014-11-13 02:59:00,2543E-3,5C000000,-0724,0833,12243,024.7,045.3,0.483,740.8,01.18,0.508
2014-11-13 03:00:00,2458E-3,5C000000,-0724,0833,12057,024.7,045.3,0.482,740.9,01.18,0.508
2014-11-13 03:01:00,2423E-3,5C000000,-0724,0833,12160,024.8,045.3,0.483,740.9,01.18,0.508
2014-11-13 03:02:00,2432E-3,5C000000,-0724,0833,11838,024.7,045.4,0.483,740.8,01.18,0.508
2014-11-13 03:03:00,2386E-3,5C000000,-0724,0833,12260,024.7,045.4,0.483,740.8,01.18,0.508
2014-11-13 03:04:00,2358E-3,5C000000,-0724,0832,12091,024.8,045.3,0.483,740.6,01.18,0.508
2014-11-13 03:05:00,2334E-3,5C000000,-0724,0833,12204,024.8,045.4,0.482,740.7,01.18,0.508
2014-11-13 03:06:00,2410E-3,5C000000,-0724,0831,11997,024.7,045.3,0.482,740.7,01.18,0.508
2014-11-13 03:07:00,2511E-3,5C000000,-0724,0832,12047,024.8,045.3,0.483,740.7,01.18,0.508
2014-11-13 03:08:00,2419E-3,5C000000,-0724,0833,12047,024.8,045.3,0.483,740.7,01.18,0.508
2014-11-13 03:09:00,2353E-3,5C000000,-0724,0833,12199,024.7,045.4,0.483,740.7,01.18,0.508
2014-11-13 03:10:00,2332E-3,5C000000,-0724,0833,12275,024.8,045.4,0.482,740.7,01.18,0.508
2014-11-13 03:11:00,2490E-3,5C000000,-0724,0833,12123,024.7,045.4,0.482,740.7,01.18,0.508
2014-11-13 03:12:00,2387E-3,5C000000,-0724,0833,12063,024.7,045.3,0.483,740.7,01.18,0.508
2014-11-13 03:13:00,2443E-3,5C000000,-0724,0832,12089,024.7,045.4,0.483,740.7,01.18,0.508
2014-11-13 03:14:00,2395E-3,5C000000,-0724,0834,12180,024.8,045.3,0.483,740.7,01.18,0.508
2014-11-13 03:15:00,2367E-3,5C000000,-0724,0833,12157,024.7,045.3,0.482,740.7,01.18,0.508
2014-11-13 03:16:00,2475E-3,5C000000,-0724,0834,12147,024.7,045.3,0.483,740.7,01.18,0.508
2014-11-13 03:17:00,2387E-3,5C000000,-0724,0833,12205,024.7,045.3,0.483,740.7,01.18,0.508
2014-11-13 03:18:00,2429E-3,5C000000,-0724,0833,12203,024.8,045.4,0.483,740.8,01.18,0.508
2014-11-13 03:19:00,2356E-3,5C000000,-0724,0833,12234,024.8,045.4,0.483,740.6,01.18,0.508
2014-11-13 03:20:00,2249E-3,5C000000,-0724,0833,12221,024.7,045.4,0.482,740.6,01.18,0.508
2014-11-13 03:21:00,2397E-3,5C000000,-0724,0834,12211,024.7,045.3,0.482,740.6,01.18,0.508
2014-11-13 03:22:00,2488E-3,5C000000,-0724,0833,12159,024.7,045.3,0.483,740.6,01.18,0.508
2014-11-13 03:23:00,2455E-3,5C000000,-0724,0832,12024,024.7,045.3,0.483,740.6,01.18,0.508
2014-11-13 03:24:00,2569E-3,5C000000,-0724,0832,12222,024.7,045.3,0.483,740.6,01.18,0.508
2014-11-13 03:25:00,2348E-3,5C000000,-0724,0833,12259,024.7,045.3,0.482,740.6,01.18,0.508
2014-11-13 03:26:00,2440E-3,5C000000,-0724,0833,12142,024.7,045.3,0.483,740.6,01.18,0.508
2014-11-13 03:27:00,2419E-3,5C000000,-0724,0833,12130,024.7,045.4,0.483,740.6,01.18,0.508
2014-11-13 03:28:00,2432E-3,5C000000,-0724,0833,12253,024.8,045.4,0.483,740.6,01.18,0.508
2014-11-13 03:29:00,2293E-3,5C000000,-0724,0834,12235,024.7,045.3,0.483,740.6,01.18,0.508
2014-11-13 03:30:00,2410E-3,5C000000,-0724,0833,12044,024.7,045.4,0.483,740.7,01.18,0.508
2014-11-13 03:31:00,2403E-3,5C000000,-0724,0833,12140,024.7,045.3,0.483,740.6,01.18,0.508
2014-11-13 03:32:00,2458E-3,5C000000,-0724,0834,12177,024.7,045.3,0.483,740.6,01.18,0.508
2014-11-13 03:33:00,2417E-3,5C000000,-0724,0834,12204,024.7,045.3,0.483,740.6,01.18,0.508
2014-11-13 03:34:00,2495E-3,5C000000,-0724,0834,12134,024.7,045.4,0.482,740.6,01.18,0.508
2014-11-13 03:35:00,2349E-3,5C000000,-0724,0833,12206,024.8,045.4,0.483,740.6,01.18,0.508
2014-11-13 03:36:00,2533E-3,5C000000,-0724,0833,12101,024.8,045.3,0.483,740.6,01.18,0.508
2014-11-13 03:37:00,2321E-3,5C000000,-0724,0834,12197,024.8,045.3,0.483,740.6,01.18,0.508
2014-11-13 03:38:00,2196E-3,5C000000,-0724,0832,12236,024.8,045.3,0.482,740.6,01.18,0.508
2014-11-13 03:39:00,2391E-3,5C000000,-0724,0833,12128,024.8,045.3,0.483,740.6,01.18,0.508
2014-11-13 03:40:00,2385E-3,5C000000,-0724,0833,12275,024.7,045.3,0.483,740.6,01.18,0.508
2014-11-13 03:41:00,2361E-3,5C000000,-0724,0833,12177,024.7,045.4,0.483,740.6,01.18,0.508
2014-11-13 03:42:00,2294E-3,5C000000,-0724,0833,11996,024.7,045.4,0.482,740.6,01.18,0.508
2014-11-13 03:43:00,2375E-3,5C000000,-0724,0833,11938,024.7,045.4,0.483,740.6,01.18,0.508
2014-11-13 03:44:00,2368E-3,5C000000,-0724,0833,12231,024.7,045.3,0.483,740.6,01.18,0.508
2014-11-13 03:45:00,2312E-3,5C000000,-0724,0833,12237,024.7,045.4,0.483,740.6,01.18,0.508
2014-11-13 03:46:00,2161E-3,5C000000,-0724,0833,12103,024.7,045.4,0.482,740.6,01.18,0.508
2014-11-13 03:47:00,2315E-3,5C000000,-0724,0833,12190,024.7,045.4,0.483,740.6,01.18,0.508
2014-11-13 03:48:00,2401E-3,5C000000,-0724,0833,12119,024.7,045.4,0.483,740.6,01.18,0.508
2014-11-13 03:49:00,2347E-3,5C000000,-0724,0833,12283,024.7,045.4,0.483,740.6,01.18,0.508
2014-11-13 03:50:00,2448E-3,5C000000,-0724,0833,12348,024.7,045.4,0.482,740.6,01.18,0.508
2014-11-13 03:51:00,2304E-3,5C000000,-0724,0833,12073,024.7,045.4,0.483,740.6,01.18,0.508
2014-11-13 03:52:00,2345E-3,5C000000,-0724,0833,12248,024.7,045.4,0.483,740.6,01.18,0.508
2014-11-13 03:53:00,2530E-3,5C000000,-0724,0833,12095,024.8,045.4,0.483,740.6,01.18,0.508
2014-11-13 03:54:00,2532E-3,5C000000,-0724,0833,12136,024.7,045.4,0.482,740.6,01.18,0.508
2014-11-13 03:55:00,2344E-3,5C000000,-0724,0833,12223,024.7,045.4,0.483,740.6,01.18,0.508
2014-11-13 03:56:00,2306E-3,5C000000,-0724,0832,11926,024.8,045.4,0.483,740.6,01.18,0.508
2014-11-13 03:57:00,2527E-3,5C000000,-0724,0833,12342,024.7,045.4,0.482,740.6,01.18,0.508
2014-11-13 03:58:00,2453E-3,5C000000,-0724,0833,12159,024.7,045.4,0.483,740.6,01.18,0.508
2014-11-13 03:59:00,2365E-3,5C000000,-0724,0833,12095,024.7,045.4,0.483,740.5,01.18,0.508
2014-11-13 04:00:00,2337E-3,5C000000,-0724,0833,12021,024.7,045.4,0.482,740.5,01.18,0.508
2014-11-13 04:01:00,2455E-3,5C000000,-0724,0833,12273,024.7,045.3,0.482,740.5,01.18,0.508
2014-11-13 04:02:00,2332E-3,5C000000,-0724,0832,11873,024.7,045.3,0.483,740.5,01.18,0.508
2014-11-13 04:03:00,2405E-3,5C000000,-0724,0833,12039,024.7,045.3,0.483,740.5,01.18,0.508
2014-11-13 04:04:00,2448E-3,5C000000,-0724,0833,12110,024.7,045.4,0.482,740.5,01.18,0.508
2014-11-13 04:05:00,2311E-3,5C000000,-0724,0833,11978,024.7,045.4,0.483,740.5,01.18,0.508
2014-11-13 04:06:00,2352E-3,5C000000,-0724,0833,12156,024.7,045.3,0.483,740.6,01.18,0.508
2014-11-13 04:07:00,2448E-3,5C000000,-0724,0833,12176,024.7,045.4,0.482,740.5,01.18,0.508
2014-11-13 04:08:00,2267E-3,5C000000,-0724,0833,12133,024.7,045.3,0.483,740.5,01.18,0.508
2014-11-13 04:09:00,2351E-3,5C000000,-0724,0834,12201,024.7,045.3,0.483,740.5,01.18,0.508
2014-11-13 04:10:00,2527E-3,5C000000,-0724,0833,12143,024.7,045.3,0.482,740.6,01.18,0.508
2014-11-13 04:11:00,2465E-3,5C000000,-0724,0833,12287,024.7,045.3,0.483,740.6,01.18,0.508
2014-11-13 04:12:00,2433E-3,5C000000,-0724,0833,12272,024.7,045.4,0.483,740.6,01.18,0.508
2014-11-13 04:13:00,2372E-3,5C000000,-0724,0834,12219,024.7,045.4,0.483,740.6,01.18,0.508
2014-11-13 04:14:00,2388E-3,5C000000,-0724,0833,12138,024.7,045.4,0.483,740.6,01.18,0.508
2014-11-13 04:15:00,2494E-3,5C000000,-0724,0833,12116,024.7,045.3,0.483,740.6,01.18,0.508
2014-11-13 04:16:00,2433E-3,5C000000,-0724,0833,12203,024.7,045.3,0.483,740.6,01.18,0.508
2014-11-13 04:17:00,2324E-3,5C000000,-0724,0833,12171,024.7,045.4,0.483,740.6,01.18,0.508
2014-11-13 04:18:00,2511E-3,5C000000,-0724,0834,12278,024.7,045.4,0.483,740.6,01.18,0.508
2014-11-13 04:19:00,2453E-3,5C000000,-0724,0833,12204,024.7,045.4,0.483,740.6,01.18,0.508
2014-11-13 04:20:00,2642E-3,5C000000,-0724,0833,12180,024.7,045.4,0.483,740.6,01.18,0.508